Location: *
(46.4833°N, 7.6667°E)
Time: 14:01:38
(UTC+00:00)

STARLINK-1053 - Pass Details

Date: 27 February 2020
Orbit: 548 x 551 km, 53.0° (Epoch: 28 March)

Event Time Altitude Azimuth Distance (km) Brightness Sun altitude
Rises 17:34:33 0° 216° (SW) 2,702 7.9 -4.8°
Reaches altitude 10° 17:36:52 10° 208° (SSW) 1,813 6.8 -5.1°
Maximum altitude 17:40:43 39° 139° (SE) 826 4.3 -5.8°
Drops below altitude 10° 17:44:35 10° 70° (ENE) 1,824 5.6 -6.5°
Enters shadow 17:45:11 - 68° (ENE) 2,048 5.9 -6.6°
